DateTimeUTC,F1_A11,F1_S11,BsB_S11,BsG_S11,BsR_S11,BbsB_S11,BbsG_S11,BbsR_S11,BaB_A11,BaG_A11,BaR_A11,T_S11,U_S11,P_S11,T1_A11
2020-06-15T00:00:00Z,00000380,20000600,,,,,,,,,,24.8,01.7,0667.4,31.1
2020-06-15T00:01:00Z,00000380,20000600,,,,,,,,,,24.8,01.7,0667.4,31.1
2020-06-15T00:02:00Z,00000380,20000600,,,,,,,,,,24.8,01.7,0667.4,31.1
2020-06-15T00:03:00Z,00000380,60000600,,,,,,,,,,24.8,01.7,0667.4,31.1
2020-06-15T00:04:00Z,00000380,40000600,0000.52,-000.07,0000.49,0000.81,0000.20,-000.14,0000.06,0000.13,0000.02,24.6,01.8,0668.3,31.1
2020-06-15T00:05:00Z,00000380,00000600,-000.16,0000.06,0000.15,0000.50,0000.31,0000.42,-000.02,-000.01,0000.05,24.6,01.8,0668.5,31.1
2020-06-15T00:06:00Z,00000380,00000600,0001.14,-000.39,0000.37,-000.21,0000.39,0000.30,0000.05,0000.10,0000.09,24.6,01.8,0668.5,31.1
2020-06-15T00:07:00Z,00000380,00000600,0000.33,0000.48,0000.29,0000.76,0000.40,0000.11,0000.12,0000.09,-000.05,24.6,01.9,0668.5,31.1
2020-06-15T00:08:00Z,00000380,00000600,0001.35,-000.14,0000.74,0000.43,0000.05,0000.61,0000.03,-000.03,0000.08,24.5,01.9,0668.5,31.1
2020-06-15T00:09:00Z,00000380,00000600,0000.78,0000.58,0000.46,0000.40,0000.40,0000.06,0000.11,0000.02,0000.16,24.5,01.9,0668.5,31.1
2020-06-15T00:10:00Z,00000380,00000600,0000.53,0000.15,0000.05,0000.50,-000.00,-000.30,0000.06,0000.18,0000.04,24.5,02.0,0668.5,31.1
2020-06-15T00:11:00Z,00000380,00000600,-000.48,0000.11,0000.57,0000.27,0000.39,0000.89,0000.00,-000.05,-000.03,24.5,01.9,0668.5,31.1
2020-06-15T00:12:00Z,00000380,00000600,0000.96,0000.67,0000.87,-000.11,0000.72,0000.40,0000.14,0000.04,-000.03,24.5,02.0,0668.5,31.1
2020-06-15T00:13:00Z,00000380,00000600,0000.06,0000.33,-000.10,0000.45,0000.09,-000.31,0000.08,0000.25,0000.01,24.5,02.0,0668.5,31.1
2020-06-15T00:14:00Z,00000380,00000600,0001.08,0000.73,0000.41,0000.55,0000.25,0000.15,0000.03,-000.20,0000.07,24.5,01.9,0668.5,31.1
2020-06-15T00:15:00Z,00000380,00000600,0000.02,0000.18,0000.46,0000.89,-000.01,0000.74,0000.10,0000.23,0000.04,24.5,02.0,0668.5,31.1
2020-06-15T00:16:00Z,00000380,00000600,-000.03,-000.11,0000.29,0000.43,0000.43,0000.71,-000.16,0000.01,-000.00,24.5,02.0,0668.5,31.1
2020-06-15T00:17:00Z,00000380,00000600,0001.66,0000.26,0000.28,0000.68,0000.40,0000.15,0000.20,0000.11,0000.16,24.5,02.0,0668.4,31.1
2020-06-15T00:18:00Z,00000380,00000600,0001.39,0000.86,0000.80,0000.56,-000.20,-000.00,-000.09,-000.02,0000.02,24.5,02.0,0668.4,31.1
2020-06-15T00:19:00Z,00000380,00000600,0002.25,0000.35,-000.00,0000.26,0000.28,-000.09,0000.16,0000.05,0000.07,24.5,02.1,0668.4,31.0
2020-06-15T00:20:00Z,00000380,00000600,-000.54,0000.30,-000.08,-000.51,0000.05,0000.29,0000.01,0000.04,0000.07,24.5,02.1,0668.4,31.1
2020-06-15T00:21:00Z,00000380,00000600,0000.19,0000.49,0001.10,0000.43,0000.25,0000.44,0000.03,0000.09,-000.02,24.5,02.1,0668.4,31.1
2020-06-15T00:22:00Z,00000380,00000600,0000.70,0000.09,0000.14,0000.44,-000.03,0000.48,0000.15,0000.03,-000.10,24.5,02.1,0668.3,31.1
2020-06-15T00:23:00Z,00000380,00000600,0000.87,0000.47,0000.44,0000.59,0000.47,0000.36,-000.02,0000.08,0000.08,24.5,02.1,0668.4,31.1
2020-06-15T00:24:00Z,00000380,00000600,0001.73,0000.25,0000.22,0000.23,0000.39,0000.60,0000.05,0000.08,0000.01,24.5,02.1,0668.3,31.1
2020-06-15T00:25:00Z,00000380,00000600,0000.11,-000.02,0000.57,-000.36,0000.47,0000.37,0000.02,-000.10,0000.04,24.5,02.1,0668.3,31.1
2020-06-15T00:26:00Z,00000380,00000600,-000.14,0000.81,0000.09,0000.96,0000.25,0000.27,0000.25,0000.09,0000.06,24.5,02.1,0668.3,31.1
2020-06-15T00:27:00Z,00000380,00000600,0000.29,0000.08,0000.87,-000.13,0000.30,0000.13,-000.10,0000.07,-000.05,24.5,02.2,0668.4,31.1
2020-06-15T00:28:00Z,00000380,00000600,0000.66,0000.26,0000.04,0000.94,0000.15,0000.17,0000.14,-000.02,0000.22,24.5,02.1,0668.3,31.1
2020-06-15T00:29:00Z,00000380,00000600,0000.24,-000.20,0000.19,0000.13,0000.11,0000.10,-000.15,-000.02,-000.15,24.5,02.1,0668.4,31.1
2020-06-15T00:30:00Z,00000380,00000600,0001.15,0000.27,0001.28,0000.49,0000.77,0000.07,0000.03,0000.09,0000.04,24.5,02.1,0668.4,31.1
2020-06-15T00:31:00Z,00000380,00000600,0000.68,0000.98,0000.53,0000.01,0000.22,0000.48,0000.16,-000.12,0000.12,24.5,02.1,0668.4,31.1
2020-06-15T00:32:00Z,00000380,00000600,0001.09,0000.76,0000.17,-000.63,0000.20,0000.19,-000.19,0000.16,0000.02,24.5,02.2,0668.4,31.1
2020-06-15T00:33:00Z,00000380,00000600,0001.24,-000.02,0000.60,0000.33,0000.56,0000.49,0000.14,0000.07,0000.16,24.5,02.2,0668.4,31.1
2020-06-15T00:34:00Z,00000380,00000600,0000.44,0000.44,0000.10,-000.45,0000.07,0000.23,0000.23,0000.14,0000.04,24.5,02.2,0668.3,31.1
2020-06-15T00:35:00Z,00000380,00000600,0001.47,0000.65,-000.13,0000.62,0000.57,0000.14,-000.09,0000.09,-000.08,24.5,02.2,0668.4,31.1
2020-06-15T00:36:00Z,00000380,00000600,0000.83,0000.50,0000.35,-000.58,0000.42,0000.21,0000.05,-000.12,0000.08,24.5,02.2,0668.3,31.1
2020-06-15T00:37:00Z,00000380,00000600,0001.32,0000.79,0000.58,0000.05,0000.31,0000.17,0000.11,0000.08,0000.10,24.5,02.2,0668.3,31.0
2020-06-15T00:38:00Z,00000380,00000600,0000.40,0000.73,0000.26,-000.23,0000.45,0000.20,-000.09,0000.01,-000.10,24.4,02.2,0668.3,31.1
2020-06-15T00:39:00Z,00000380,00000600,0001.46,0000.65,0000.09,0000.48,0000.17,0000.03,0000.13,0000.08,-000.03,24.5,02.3,0668.3,31.0
2020-06-15T00:40:00Z,00000380,00000600,0000.90,0000.03,0000.30,0000.11,0000.31,0000.76,-000.08,0000.07,0000.05,24.4,02.3,0668.3,31.1
2020-06-15T00:41:00Z,00000380,00000600,0000.59,0000.21,0000.55,0000.85,0000.35,0000.32,0000.06,-000.09,-000.02,24.4,02.3,0668.3,31.1
2020-06-15T00:42:00Z,00000380,00000600,-000.14,0000.12,0000.62,0000.09,0000.54,0000.55,0000.19,0000.19,-000.02,24.4,02.2,0668.3,31.0
2020-06-15T00:43:00Z,00000380,00000600,0001.73,-000.08,-000.14,0000.52,0000.54,0000.28,-000.02,-000.16,0000.24,24.4,02.3,0668.4,31.1
2020-06-15T00:44:00Z,00000380,00000600,0000.79,-000.04,0000.13,0000.04,-000.12,0000.08,-000.01,0000.09,0000.03,24.4,02.3,0668.4,31.0
2020-06-15T00:45:00Z,00000380,00000600,0000.24,0000.29,0000.47,-000.62,0000.39,-000.01,-000.11,0000.06,-000.12,24.4,02.3,0668.4,31.1
2020-06-15T00:46:00Z,00000380,00000600,0000.26,0000.54,0000.74,0000.42,0000.04,0000.78,0000.20,0000.19,0000.14,24.4,02.3,0668.3,31.1
2020-06-15T00:47:00Z,00000380,00000600,0000.77,0000.43,0000.90,-000.26,0000.27,0000.53,0000.06,0000.05,-000.06,24.4,02.3,0668.3,31.0
2020-06-15T00:48:00Z,00000380,00000600,0000.88,0000.37,0001.27,0000.11,-000.09,0000.08,0000.01,0000.01,0000.17,24.4,02.3,0668.4,31.1
2020-06-15T00:49:00Z,00000380,00000600,0001.86,0000.47,0000.45,0000.83,0000.30,-000.00,-000.11,-000.08,-000.26,24.4,02.3,0668.4,31.1
2020-06-15T00:50:00Z,00000380,00000600,0001.25,-000.11,-000.06,0000.29,0000.30,0000.63,0000.07,-000.02,0000.02,24.4,02.3,0668.3,31.0
2020-06-15T00:51:00Z,00000380,00000600,0000.49,0000.67,0000.11,0000.59,0000.05,0000.07,-000.01,0000.03,0000.10,24.4,02.3,0668.3,31.0
2020-06-15T00:52:00Z,00000380,00000600,-000.41,-000.09,0000.15,0000.06,0000.42,0000.22,0000.12,0000.04,0000.09,24.4,02.3,0668.3,31.0
2020-06-15T00:53:00Z,00000380,00000600,0000.47,-000.06,0000.42,-000.51,0000.60,0000.09,-000.01,-000.02,0000.06,24.4,02.3,0668.3,31.1
2020-06-15T00:54:00Z,00000380,00000600,-000.40,-000.22,0000.20,-000.06,0000.04,-000.33,0000.02,-000.09,-000.15,24.4,02.3,0668.3,31.1
2020-06-15T00:55:00Z,00000380,00000600,0000.76,0000.40,0000.29,0000.61,0000.17,-000.05,-000.21,0000.02,0000.11,24.4,02.3,0668.2,31.0
2020-06-15T00:56:00Z,00000380,00000600,0000.27,0000.60,0000.33,0000.36,0000.58,0000.28,0000.11,0000.17,-000.03,24.4,02.3,0668.3,31.0
2020-06-15T00:57:00Z,00000380,40000600,,,,,,,,,,24.4,02.2,0668.0,31.1
2020-06-15T00:58:00Z,00000380,60000600,,,,,,,,,,24.5,02.1,0667.2,31.1
2020-06-15T00:59:00Z,00000380,20000600,,,,,,,,,,24.6,02.1,0667.2,31.0
2020-06-15T01:00:00Z,00000380,20000600,,,,,,,,,,24.6,02.1,0667.2,31.0
2020-06-15T01:01:00Z,00000380,20000600,,,,,,,,,,24.6,02.1,0667.2,31.0
2020-06-15T01:02:00Z,00000380,20000600,,,,,,,,,,24.6,02.1,0667.2,31.0
2020-06-15T01:03:00Z,00000380,60000600,,,,,,,,,,24.6,02.1,0667.2,31.1
2020-06-15T01:04:00Z,00000380,40000600,0000.49,0000.85,0000.18,0000.30,-000.02,-000.03,0000.03,0000.08,0000.02,24.4,02.3,0668.1,31.0
2020-06-15T01:05:00Z,00000380,00000600,0001.27,0000.91,0000.19,0000.47,0000.32,-000.12,0000.13,-000.09,0000.19,24.4,02.2,0668.3,31.0
2020-06-15T01:06:00Z,00000380,00000600,0000.84,0000.34,0000.18,-000.22,-000.08,0000.29,-000.07,0000.16,-000.17,24.4,02.3,0668.2,31.0
2020-06-15T01:07:00Z,00000380,00000600,0001.13,0000.58,0000.55,0000.14,0000.26,0000.23,0000.03,-000.07,0000.17,24.4,02.3,0668.2,31.0
2020-06-15T01:08:00Z,00000380,00000600,0001.15,0000.44,-000.81,0000.56,0000.50,0000.21,-000.07,0000.15,-000.07,24.4,02.3,0668.2,31.0
2020-06-15T01:09:00Z,00000380,00000600,0000.37,0000.44,0000.07,0000.12,0000.17,-000.02,0000.09,-000.03,0000.00,24.4,02.3,0668.2,31.0
2020-06-15T01:10:00Z,00000380,00000600,0001.61,0000.61,-000.01,-000.43,0000.46,0000.23,0000.12,-000.08,0000.09,24.4,02.4,0668.2,31.0
2020-06-15T01:11:00Z,00000380,00000600,0000.90,0000.46,0000.27,0000.35,0000.50,-000.05,0000.05,0000.14,0000.14,24.4,02.3,0668.2,31.0
2020-06-15T01:12:00Z,00000380,00000600,0000.51,0000.69,0000.36,0000.46,0000.07,0000.20,-000.07,-000.10,-000.07,24.4,02.3,0668.2,31.1
2020-06-15T01:13:00Z,00000380,00000600,0001.13,0000.33,-000.20,0000.21,0000.16,-000.13,0000.05,0000.11,0000.10,24.3,02.4,0668.2,31.0
2020-06-15T01:14:00Z,00000380,00000600,0001.34,0000.30,0000.21,0000.74,0000.15,0000.02,-000.02,-000.05,0000.07,24.3,02.4,0668.2,31.0
2020-06-15T01:15:00Z,00000380,00000600,0000.09,0000.14,-000.02,0000.22,0000.14,0000.03,0000.03,-000.01,-000.13,24.3,02.4,0668.2,31.0
2020-06-15T01:16:00Z,00000380,00000600,0001.01,0001.08,-000.36,0000.26,0000.39,-000.17,0000.20,0000.07,0000.11,24.3,02.3,0668.2,31.0
2020-06-15T01:17:00Z,00000380,00000600,0000.08,0000.13,-000.03,0000.53,0000.08,-000.37,-000.05,-000.10,-000.02,24.3,02.4,0668.2,31.0
2020-06-15T01:18:00Z,00000380,00000600,0001.83,0000.92,-000.08,0000.18,0000.14,-000.22,-000.22,0000.28,-000.00,24.3,02.4,0668.1,31.0
2020-06-15T01:19:00Z,00000380,00000600,0000.60,-000.01,-000.45,0000.37,-000.17,-000.20,0000.17,-000.05,-000.04,24.3,02.4,0668.2,31.0
2020-06-15T01:20:00Z,00000380,00000600,0001.80,0000.59,0000.34,-000.15,0000.28,-000.02,-000.03,-000.05,0000.01,24.3,02.4,0668.1,31.0
2020-06-15T01:21:00Z,00000380,00000600,0000.82,0000.12,0000.12,0000.36,0000.32,-000.14,0000.05,0000.03,0000.12,24.3,02.4,0668.1,31.0
2020-06-15T01:22:00Z,00000380,00000600,0001.43,0000.69,0000.02,0001.09,-000.03,-000.01,0000.10,-000.03,-000.04,24.3,02.4,0668.1,31.0
2020-06-15T01:23:00Z,00000380,00000600,0001.42,0000.55,0000.12,0000.34,0000.25,-000.12,0000.02,0000.22,0000.14,24.3,02.4,0668.2,31.0
2020-06-15T01:24:00Z,00000380,00000600,0000.71,0000.66,0000.03,0000.13,0000.03,0000.21,-000.12,-000.12,-000.01,24.3,02.4,0668.2,31.0
2020-06-15T01:25:00Z,00000380,00000600,0001.01,0000.26,-000.42,0000.55,0000.02,-000.28,0000.12,-000.00,-000.07,24.3,02.4,0668.1,31.0
2020-06-15T01:26:00Z,00000380,00000600,0000.50,0000.22,0000.19,0000.20,-000.29,-000.11,0000.13,0000.13,0000.12,24.3,02.5,0668.2,31.0
2020-06-15T01:27:00Z,00000380,00000600,-000.91,0000.89,-000.18,-000.62,0000.17,-000.14,-000.05,-000.03,0000.15,24.2,02.5,0668.2,31.0
2020-06-15T01:28:00Z,00000380,00000600,0002.16,0000.59,0000.11,-000.46,0000.43,0000.20,-000.04,-000.05,-000.12,24.2,02.4,0668.2,31.0
2020-06-15T01:29:00Z,00000380,00000600,0000.54,0000.69,0000.01,0000.25,0000.10,-000.04,0000.16,0000.02,0000.13,24.2,02.5,0668.2,31.0
2020-06-15T01:30:00Z,00000380,00000600,0000.72,0000.54,0000.10,0000.49,0000.34,-000.08,-000.07,0000.36,-000.08,24.2,02.4,0668.2,31.0
2020-06-15T01:31:00Z,00000380,00000600,0000.73,0001.35,0000.31,0000.27,-000.01,0000.20,0000.07,-000.35,0000.08,24.2,02.5,0668.2,31.0
2020-06-15T01:32:00Z,00000380,00000600,-000.28,0000.60,0000.27,0000.47,0000.38,0000.23,-000.12,0000.09,-000.17,24.2,02.5,0668.2,31.0
2020-06-15T01:33:00Z,00000380,00000600,0000.85,0000.68,0000.34,0000.81,0000.29,0000.30,0000.07,0000.06,0000.01,24.2,02.4,0668.2,31.0
2020-06-15T01:34:00Z,00000380,00000600,0000.62,0000.22,-000.04,-000.39,0000.13,-000.74,-000.09,-000.09,0000.04,24.2,02.5,0668.2,31.0
2020-06-15T01:35:00Z,00000380,00000600,-000.29,0000.01,-000.08,-000.38,0000.23,0000.15,0000.09,0000.19,0000.11,24.2,02.5,0668.2,31.0
2020-06-15T01:36:00Z,00000380,00000600,0000.96,0000.33,-000.35,0000.02,0000.31,-000.28,0000.03,-000.13,-000.05,24.2,02.5,0668.2,31.0
2020-06-15T01:37:00Z,00000380,00000600,0000.80,0000.62,0000.15,-001.04,0000.19,0000.40,0000.03,0000.02,0000.05,24.2,02.4,0668.2,31.0
2020-06-15T01:38:00Z,00000380,00000600,0000.94,0000.43,0000.26,0000.91,-000.02,0000.19,0000.26,0000.14,0000.16,24.2,02.4,0668.2,31.0
2020-06-15T01:39:00Z,00000380,00000600,0000.74,0000.56,0000.08,0000.54,0000.48,-000.19,-000.28,-000.16,-000.14,24.2,02.5,0668.2,31.0
2020-06-15T01:40:00Z,00000380,00000600,0001.11,0000.63,0000.12,-000.10,-000.01,-000.12,0000.07,0000.02,0000.00,24.2,02.4,0668.2,31.0
2020-06-15T01:41:00Z,00000380,00000600,0000.39,0000.70,-000.41,-000.41,0000.01,-000.31,0000.05,0000.29,0000.14,24.2,02.5,0668.2,31.0
2020-06-15T01:42:00Z,00000380,00000600,0000.01,0000.43,-000.12,-000.11,0000.18,-000.38,0000.05,-000.03,-000.13,24.2,02.4,0668.2,31.0
2020-06-15T01:43:00Z,00000380,00000600,0000.58,0000.38,0000.81,-000.41,0000.08,-000.11,-000.03,-000.02,0000.10,24.2,02.5,0668.2,31.0
2020-06-15T01:44:00Z,00000380,00000600,0001.46,0000.77,-000.01,0001.04,0000.14,-000.06,0000.08,0000.05,0000.17,24.2,02.4,0668.2,31.0
2020-06-15T01:45:00Z,00000380,00000600,0001.72,0000.80,0000.40,-000.15,-000.08,0000.20,0000.12,-000.13,-000.08,24.2,02.5,0668.3,31.0
2020-06-15T01:46:00Z,00000380,00000600,0000.60,0000.85,0000.32,-000.00,0000.12,-000.09,-000.03,0000.06,-000.06,24.2,02.5,0668.2,31.0
2020-06-15T01:47:00Z,00000380,00000600,-000.31,0000.58,-000.13,0000.32,0000.21,-000.41,0000.11,-000.02,0000.12,24.2,02.5,0668.2,31.0
2020-06-15T01:48:00Z,00000380,00000600,0001.13,0000.87,0000.04,0000.08,0000.11,0000.11,-000.10,-000.11,-000.13,24.2,02.6,0668.3,31.0
2020-06-15T01:49:00Z,00000380,00000600,0000.83,0000.49,0000.55,-000.43,0000.01,-000.34,-000.02,0000.20,0000.08,24.2,02.6,0668.3,31.0
2020-06-15T01:50:00Z,00000380,00000600,0000.10,0001.04,-000.32,0000.62,0000.02,-000.05,0000.04,-000.08,-000.01,24.2,02.5,0668.2,31.0
2020-06-15T01:51:00Z,00000380,00000600,0000.60,0000.69,-000.16,-000.13,0000.28,0000.21,0000.03,0000.15,0000.10,24.2,02.5,0668.3,31.0
2020-06-15T01:52:00Z,00000380,00000600,0000.36,0000.32,-000.25,0000.67,0000.04,-000.06,0000.04,0000.01,-000.03,24.2,02.6,0668.3,31.0
2020-06-15T01:53:00Z,00000380,00000600,0001.31,0000.88,-000.04,-000.66,0000.01,0000.08,-000.00,0000.18,0000.07,24.2,02.6,0668.2,31.0
2020-06-15T01:54:00Z,00000380,00000600,0000.59,0000.72,-000.20,-000.59,0000.03,-000.19,0000.05,-000.19,0000.04,24.1,02.6,0668.2,31.0
2020-06-15T01:55:00Z,00000380,00000600,0000.98,0000.81,0000.06,0000.50,0000.72,0000.18,-000.06,0000.06,0000.04,24.1,02.6,0668.3,31.0
2020-06-15T01:56:00Z,00000380,00000600,0001.40,0000.07,0000.09,-000.39,-000.03,0000.02,-000.03,0000.16,-000.09,24.1,02.7,0668.2,31.0
2020-06-15T01:57:00Z,00000380,40000600,,,,,,,,,,24.2,03.0,0668.3,31.0
2020-06-15T01:58:00Z,00000380,60000600,,,,,,,,,,24.2,02.4,0667.3,31.0
2020-06-15T01:59:00Z,00000380,20000600,,,,,,,,,,24.3,02.4,0667.3,31.0
2020-06-15T02:00:00Z,00000380,20000600,,,,,,,,,,24.4,02.4,0667.3,31.0
2020-06-15T02:01:00Z,00000380,20000600,,,,,,,,,,24.4,02.4,0667.3,31.0
2020-06-15T02:02:00Z,00000380,20000600,,,,,,,,,,24.4,02.4,0667.3,31.0
2020-06-15T02:03:00Z,00000380,60000600,,,,,,,,,,24.4,02.4,0667.3,31.0
2020-06-15T02:04:00Z,00000380,40000600,0000.26,0000.95,-000.25,-000.87,0000.04,0000.43,-000.20,0000.16,-000.02,24.2,02.4,0668.2,31.0
2020-06-15T02:05:00Z,00000380,00000600,0001.18,0001.17,0000.18,-000.18,-000.14,0000.09,0000.06,-000.13,0000.05,24.1,02.5,0668.3,31.0
2020-06-15T02:06:00Z,00000380,00000600,-000.18,0000.73,0000.39,-000.29,0000.22,0000.11,0000.22,0000.02,-000.03,24.1,02.5,0668.2,31.0
2020-06-15T02:07:00Z,00000380,00000600,0001.27,0000.43,0000.42,0000.28,-000.01,-000.00,-000.28,-000.09,-000.08,24.1,02.5,0668.3,31.0
2020-06-15T02:08:00Z,00000380,00000600,0000.98,0000.43,0000.25,-000.20,0000.20,0000.13,0000.25,0000.25,0000.14,24.1,02.5,0668.3,31.0
2020-06-15T02:09:00Z,00000380,00000600,-000.84,0000.41,-000.23,-000.21,-000.13,0000.04,0000.00,-000.04,0000.09,24.1,02.6,0668.3,31.0
2020-06-15T02:10:00Z,00000380,00000600,-000.03,0000.91,0000.55,0000.26,-000.18,0000.19,0000.05,-000.02,0000.09,24.1,02.6,0668.3,31.0
2020-06-15T02:11:00Z,00000380,00000600,-000.37,0000.53,0000.18,0000.33,0000.23,0000.36,0000.06,0000.07,-000.12,24.1,02.6,0668.3,31.0
2020-06-15T02:12:00Z,00000380,00000600,-000.94,0000.51,-000.01,-000.08,-000.15,-000.38,-000.12,0000.02,0000.03,24.1,02.6,0668.3,31.0
2020-06-15T02:13:00Z,00000380,00000600,0001.59,0000.32,0000.40,-000.11,0000.00,0000.09,0000.01,-000.03,-000.10,24.1,02.6,0668.3,31.0
2020-06-15T02:14:00Z,00000380,00000600,-000.62,0000.37,-000.00,-000.49,0000.09,0000.06,-000.05,0000.05,0000.09,24.1,02.6,0668.3,31.0
2020-06-15T02:15:00Z,00000380,00000600,-000.47,0000.54,-000.49,-000.08,-000.05,0000.15,0000.11,-000.00,-000.01,24.1,02.6,0668.3,31.0
2020-06-15T02:16:00Z,00000380,00000600,0000.22,0000.18,0000.11,-000.10,-000.08,0000.23,0000.05,0000.10,0000.12,24.1,02.6,0668.3,31.0
2020-06-15T02:17:00Z,00000380,00000600,0001.26,0000.36,0000.51,-000.72,0000.24,0000.30,-000.04,-000.11,0000.13,24.1,02.6,0668.2,31.0
2020-06-15T02:18:00Z,00000380,00000600,-000.48,0000.63,0000.19,0000.26,0000.13,-000.08,0000.14,0000.12,-000.20,24.1,02.6,0668.3,31.0
2020-06-15T02:19:00Z,00000380,00000600,0000.68,0000.32,0000.05,0000.23,-000.16,-000.07,0000.08,0000.05,0000.15,24.1,02.6,0668.2,31.0
2020-06-15T02:20:00Z,00000380,00000600,0000.58,0000.10,-000.00,0000.09,0000.17,-000.13,-000.05,-000.16,-000.01,24.1,02.7,0668.2,31.0
2020-06-15T02:21:00Z,00000380,00000600,-000.17,-000.22,0000.02,-000.15,-000.21,0000.05,-000.03,0000.16,-000.07,24.1,02.6,0668.3,31.0
2020-06-15T02:22:00Z,00000380,00000600,0000.57,0000.48,0000.20,-001.54,-000.41,0000.20,0000.03,-000.12,0000.01,24.0,02.7,0668.2,31.0
2020-06-15T02:23:00Z,00000380,00000600,0000.15,0000.58,0001.06,-000.17,0000.18,0000.06,0000.03,0000.17,0000.08,24.0,02.6,0668.2,31.0
2020-06-15T02:24:00Z,00000380,00000600,-000.84,0000.75,0000.19,-000.33,-000.13,0000.02,-000.02,0000.02,0000.03,24.0,02.6,0668.2,31.0
2020-06-15T02:25:00Z,00000380,00000600,0000.02,0000.66,-000.15,-000.65,0000.21,0000.44,0000.17,-000.17,0000.04,24.0,02.6,0668.2,31.0
2020-06-15T02:26:00Z,00000380,00000600,0000.07,0000.00,0000.13,-000.13,-000.06,0000.20,-000.01,0000.08,-000.12,24.0,02.6,0668.2,31.0
2020-06-15T02:27:00Z,00000380,00000600,0000.59,-000.56,0000.99,0000.08,-000.00,-000.13,-000.01,0000.05,0000.00,24.0,02.6,0668.2,31.0
2020-06-15T02:28:00Z,00000380,00000600,0000.41,0000.32,0000.15,-000.15,0000.19,0000.49,-000.09,-000.07,-000.00,24.0,02.7,0668.2,31.0
2020-06-15T02:29:00Z,00000380,00000600,0000.26,-000.30,0000.14,-000.33,-000.07,0000.12,0000.20,0000.17,0000.07,24.0,02.7,0668.2,31.0
2020-06-15T02:30:00Z,00000380,00000600,-001.69,0000.30,0000.41,0000.40,0000.14,0000.07,-000.20,-000.06,-000.03,24.0,02.7,0668.2,31.0
2020-06-15T02:31:00Z,00000380,00000600,0000.73,-000.13,-000.24,-001.28,0000.02,-000.29,0000.02,-000.06,-000.12,24.0,02.7,0668.2,31.0
2020-06-15T02:32:00Z,00000380,00000600,0000.52,0000.92,0000.19,-000.70,-000.04,0000.24,0000.05,0000.04,0000.19,24.0,02.7,0668.2,31.0
2020-06-15T02:33:00Z,00000380,00000600,-000.05,0000.19,-000.01,-000.19,-000.18,-000.46,0000.06,-000.02,-000.02,23.9,02.6,0668.2,31.0
2020-06-15T02:34:00Z,00000380,00000600,0000.97,0000.99,0000.15,-000.86,0000.25,-000.29,0000.16,0000.12,0000.10,23.9,02.6,0668.2,31.0
2020-06-15T02:35:00Z,00000380,00000600,-000.09,0000.81,0000.17,-000.25,0000.03,-000.40,-000.03,0000.03,-000.18,23.9,02.6,0668.2,31.0
2020-06-15T02:36:00Z,00000380,00000600,-000.36,0000.10,0000.15,-000.69,0000.31,-000.13,-000.00,-000.07,0000.18,23.9,02.6,0668.2,31.0
2020-06-15T02:37:00Z,00000380,00000600,0000.37,0000.59,-000.01,-000.01,0000.18,0000.12,-000.21,0000.01,0000.07,23.9,02.6,0668.1,31.0
2020-06-15T02:38:00Z,00000380,00000600,0000.70,0000.70,-000.07,0000.56,-000.13,0000.19,0000.09,-000.01,-000.08,23.9,02.6,0668.1,31.0
2020-06-15T02:39:00Z,00000380,00000600,-000.22,0000.35,0000.18,-000.11,0000.17,0000.11,0000.10,0000.01,-000.13,23.9,02.7,0668.2,31.0
2020-06-15T02:40:00Z,00000380,00000600,0001.42,0000.08,-000.02,0001.00,0000.05,-000.31,0000.07,0000.07,0000.17,23.9,02.6,0668.2,31.0
2020-06-15T02:41:00Z,00000380,00000600,-000.08,0000.87,0000.62,-000.42,0000.12,-000.02,0000.03,-000.07,-000.15,23.9,02.7,0668.2,31.0
2020-06-15T02:42:00Z,00000380,00000600,0000.06,0000.73,0000.01,-000.16,0000.14,-000.13,0000.04,0000.07,-000.08,23.9,02.6,0668.2,31.0
2020-06-15T02:43:00Z,00000380,00000600,0000.33,0000.22,0000.19,-000.38,-000.30,-000.09,-000.14,0000.07,0000.16,23.9,02.7,0668.2,31.0
2020-06-15T02:44:00Z,00000380,00000600,0000.79,0000.57,0000.02,-000.76,0000.28,-000.26,0000.10,-000.09,0000.01,23.9,02.7,0668.2,31.0
2020-06-15T02:45:00Z,00000380,00000600,-000.39,0000.37,0000.32,0000.18,0000.54,-000.26,-000.05,0000.07,-000.01,23.8,02.7,0668.1,31.0
2020-06-15T02:46:00Z,00000380,00000600,-000.65,0000.87,0000.54,-000.15,0000.16,-000.19,0000.07,0000.01,-000.01,23.8,02.7,0668.1,31.0
2020-06-15T02:47:00Z,00000380,00000600,0001.68,0000.22,0000.70,-000.33,0000.06,-000.04,-000.18,-000.11,0000.07,23.8,02.6,0668.1,31.0
2020-06-15T02:48:00Z,00000380,00000600,0001.32,-000.46,0000.22,-000.35,0000.17,0000.32,0000.22,0000.18,0000.02,23.8,02.7,0668.2,31.0
2020-06-15T02:49:00Z,00000380,00000600,0000.82,0000.46,0000.00,0000.29,-000.08,0000.14,0000.06,-000.06,-000.03,23.8,02.6,0668.1,31.0
2020-06-15T02:50:00Z,00000380,00000600,0000.52,0000.44,0000.26,-001.14,0000.41,0000.06,-000.06,-000.04,-000.09,23.8,02.7,0668.1,31.0
2020-06-15T02:51:00Z,00000380,00000600,0000.82,0000.46,0000.25,0000.10,0000.02,-000.17,0000.03,0000.01,0000.19,23.8,02.7,0668.1,31.0
2020-06-15T02:52:00Z,00000380,00000600,0000.29,-000.24,0000.08,-000.77,-000.31,0000.21,-000.01,-000.09,-000.15,23.8,02.7,0668.1,31.0
2020-06-15T02:53:00Z,00000380,00000600,0000.23,0000.23,0000.10,-000.28,0000.22,-000.51,-000.12,0000.14,0000.12,23.8,02.6,0668.1,31.0
2020-06-15T02:54:00Z,00000380,00000600,0001.00,0000.93,-000.06,-000.13,-000.08,-000.04,0000.17,0000.09,0000.06,23.8,02.7,0668.1,31.0
2020-06-15T02:55:00Z,00000380,00000600,0001.20,0000.90,0000.41,-000.05,-000.20,-000.09,-000.06,-000.10,-000.09,23.8,02.6,0668.1,31.0
2020-06-15T02:56:00Z,00000380,00000600,0000.18,0000.81,0000.23,-000.00,0000.45,0000.43,-000.07,0000.01,-000.01,23.8,02.7,0668.1,31.0
2020-06-15T02:57:00Z,00000380,40000600,,,,,,,,,,23.8,02.2,0668.1,31.0
2020-06-15T02:58:00Z,00000380,60000600,,,,,,,,,,23.9,02.6,0667.2,31.0
2020-06-15T02:59:00Z,00000380,20000600,,,,,,,,,,24.0,02.6,0667.1,31.0
2020-06-15T03:00:00Z,00000380,20000600,,,,,,,,,,24.0,02.4,0667.2,31.0
2020-06-15T03:01:00Z,00000380,20000600,,,,,,,,,,24.0,02.4,0667.2,31.0
2020-06-15T03:02:00Z,00000380,20000600,,,,,,,,,,24.0,02.4,0667.1,31.0
2020-06-15T03:03:00Z,00000380,60000600,,,,,,,,,,24.0,02.4,0667.1,31.0
2020-06-15T03:04:00Z,00000380,40000600,0000.30,0001.27,-000.23,0000.71,-000.23,-000.16,0000.08,-000.12,0000.06,23.8,02.6,0668.1,31.0
2020-06-15T03:05:00Z,00000380,00000600,0000.69,0001.22,-000.09,-000.08,0000.14,0000.11,0000.05,0000.22,-000.10,23.8,02.7,0668.1,31.0
2020-06-15T03:06:00Z,00000380,00000600,-000.00,0001.31,-000.02,0000.40,0000.02,0000.12,0000.05,-000.09,0000.08,23.8,02.6,0668.1,31.0
2020-06-15T03:07:00Z,00000380,00000600,0000.28,0001.37,0000.11,0000.01,0000.40,-000.35,-000.13,-000.10,0000.00,23.8,02.6,0668.1,31.0
2020-06-15T03:08:00Z,00000380,00000600,-000.45,0000.00,0000.08,-000.34,-000.28,-000.05,0000.16,0000.12,-000.02,23.8,02.8,0668.2,31.0
2020-06-15T03:09:00Z,00000380,00000600,0001.71,0001.16,0000.35,0001.05,0000.02,0000.17,-000.07,-000.04,0000.02,23.7,02.7,0668.1,31.0
2020-06-15T03:10:00Z,00000380,00000600,0000.53,0000.50,0000.19,0000.07,-000.07,-000.08,-000.12,-000.06,0000.00,23.7,02.6,0668.1,31.0